Zurück zum Katalog

COSMOS 2444

GLONASS

AktivNavigationMEO
NORAD 33380·PAYLOAD·🇷🇺 Russia

Gestartet Sep 25, 2008 von Baikonur Cosmodrome

Loading…

Nächste Überflüge (nächste 24 Stunden)

TLE

AlterndSource: Space-Track

Epoche: Aug 30, 2026, 00:42 UTC

1 33380U 08046C   26242.02973212 -.00000023  00000-0  00000+0 0  9992
2 33380  65.4368 312.5353 0018694 288.3477  69.2646  2.13112216139511

Verfolge COSMOS 2444 in Echtzeit mit AllMySat

Download on the App Store